Colby, KS

12:47 PM CST on February 25, 2017 (GMT -0600)
Shaltz

Weather History for KCBK - August, 2013

Change the Weather History Date:

Tuesday, August 20, 2013

  Actual Average (KGLD) Record (KGLD)
Temperature  
Mean Temperature 78 °F -  
Max Temperature 93 °F 87 °F 104 °F (1987)
Min Temperature 62 °F 60 °F 46 °F (2004)
Cooling Degree Days 12    
Growing Degree Days 28 (Base 50)    
Moisture  
Dew Point 64 °F    
Average Humidity 67    
Maximum Humidity 100    
Minimum Humidity 36    
Precipitation  
Precipitation 0.00 in - - ()
Sea Level Pressure  
Sea Level Pressure 30.02 in    
Wind  
Wind Speed 10 mph (South)    
Max Wind Speed 22 mph    
Max Gust Speed 28 mph    
Visibility 10 miles    
Events      
Averages and records for this station are not official NWS values.
T = Trace of Precipitation, MM = Missing Value Source: NWS Daily Summary

Daily Weather History Graph

Daily Weather History Graph

Search for Another Location

Airport or City:

Trip Planner

Search our weather history database for the weather conditions in past years. The results will help you decide how hot, cold, wet, or windy it might be!

Date:

Astronomy

Aug. 20, 2013 Rise Set
Actual Time 7:01 AM CDT 8:32 PM CDT
Civil Twilight 6:33 AM CDT 9:00 PM CDT
Nautical Twilight 5:59 AM CDT 9:34 PM CDT
Astronomical Twilight 5:23 AM CDT 10:10 PM CDT
Moon 8:05 PM CDT (8/20) 6:33 AM CDT (8/20)
Length of Visible Light 14h 27m
Length of Day
13h 30m
Full, 100% of the Moon is Illuminated
Aug 20
Full
Aug 20
Full
Aug 28
Last Quarter
Sep 5
New
Sep 12
First Quarter

Hourly Weather History & Observations

Time (CDT) Temp. Heat Index Dew Point Humidity Pressure Visibility Wind Dir Wind Speed Gust Speed Precip Events Conditions
12:15 AM 71.6 °F - 64.4 °F 78% 30.03 in 10.0 mi South 9.2 mph - N/A   Clear
12:35 AM 69.8 °F - 64.4 °F 83% 30.04 in 10.0 mi SSW 6.9 mph - N/A   Clear
12:55 AM 69.8 °F - 64.4 °F 83% 30.04 in 10.0 mi SSW 3.5 mph - N/A   Clear
1:15 AM 68.0 °F - 64.4 °F 88% 30.03 in 10.0 mi SSW 6.9 mph - N/A   Clear
1:35 AM 68.0 °F - 64.4 °F 88% 30.03 in 10.0 mi South 6.9 mph - N/A   Clear
1:55 AM 68.0 °F - 64.4 °F 88% 30.03 in 10.0 mi SSW 5.8 mph - N/A   Clear
2:15 AM 66.2 °F - 64.4 °F 94% 30.03 in 10.0 mi SSW 6.9 mph - N/A   Clear
2:35 AM 64.4 °F - 64.4 °F 100% 30.03 in 10.0 mi SSW 5.8 mph - N/A   Clear
2:55 AM 64.4 °F - 64.4 °F 100% 30.02 in 10.0 mi SSW 6.9 mph - N/A   Clear
3:15 AM 64.4 °F - 64.4 °F 100% 30.02 in 10.0 mi SW 5.8 mph - N/A   Clear
3:35 AM 64.4 °F - 64.4 °F 100% 30.02 in 10.0 mi SSW 5.8 mph - N/A   Clear
3:55 AM 64.4 °F - 62.6 °F 94% 30.02 in 10.0 mi SSW 6.9 mph - N/A   Clear
4:15 AM 62.6 °F - 62.6 °F 100% 30.02 in 7.0 mi SW 4.6 mph - N/A   Clear
4:35 AM 62.6 °F - 62.6 °F 100% 30.01 in 10.0 mi SW 4.6 mph - N/A   Clear
4:55 AM 62.6 °F - 62.6 °F 100% 30.01 in 10.0 mi SSW 5.8 mph - N/A   Clear
5:15 AM 64.4 °F - 62.6 °F 94% 30.01 in 10.0 mi SSW 4.6 mph - N/A   Clear
5:35 AM 62.6 °F - 62.6 °F 100% 30.01 in 10.0 mi SSW 4.6 mph - N/A   Clear
5:55 AM 62.6 °F - 62.6 °F 100% 30.01 in 10.0 mi South 3.5 mph - N/A   Clear
6:15 AM 62.6 °F - 62.6 °F 100% 30.01 in 10.0 mi South 3.5 mph - N/A   Clear
6:35 AM 62.6 °F - 62.6 °F 100% 30.02 in 10.0 mi South 4.6 mph - N/A   Clear
6:55 AM 62.6 °F - 60.8 °F 94% 30.02 in 7.0 mi SSW 4.6 mph - N/A   Clear
7:15 AM 62.6 °F - 62.6 °F 100% 30.02 in 7.0 mi South 4.6 mph - N/A   Clear
7:35 AM 62.6 °F - 62.6 °F 100% 30.03 in 7.0 mi South 8.1 mph - N/A   Clear
7:55 AM 64.4 °F - 62.6 °F 94% 30.03 in 10.0 mi SSW 6.9 mph - N/A   Clear
8:15 AM 68.0 °F - 62.6 °F 83% 30.03 in 10.0 mi South 9.2 mph - N/A   Clear
8:35 AM 68.0 °F - 62.6 °F 83% 30.03 in 10.0 mi South 10.4 mph - N/A   Clear
8:55 AM 69.8 °F - 64.4 °F 83% 30.03 in 10.0 mi South 10.4 mph - N/A   Clear
9:15 AM 71.6 °F - 64.4 °F 78% 30.04 in 10.0 mi South 13.8 mph - N/A   Clear
9:35 AM 73.4 °F - 64.4 °F 73% 30.04 in 10.0 mi South 12.7 mph - N/A   Clear
9:55 AM 75.2 °F - 64.4 °F 69% 30.04 in 10.0 mi South 15.0 mph - N/A   Clear
10:15 AM 77.0 °F - 64.4 °F 65% 30.04 in 10.0 mi South 12.7 mph - N/A   Clear
10:35 AM 78.8 °F - 64.4 °F 61% 30.04 in 10.0 mi South 12.7 mph - N/A   Clear
10:55 AM 80.6 °F 82.3 °F 64.4 °F 58% 30.04 in 10.0 mi South 13.8 mph - N/A   Clear
11:15 AM 80.6 °F 82.7 °F 66.2 °F 61% 30.04 in 10.0 mi South 10.4 mph 17.3 mph N/A   Clear
11:35 AM 82.4 °F 84.6 °F 66.2 °F 58% 30.04 in 10.0 mi South 12.7 mph 18.4 mph N/A   Clear
11:55 AM 82.4 °F 84.6 °F 66.2 °F 58% 30.04 in 10.0 mi South 12.7 mph - N/A   Clear
12:15 PM 86.0 °F 87.3 °F 64.4 °F 48% 30.03 in 10.0 mi South 15.0 mph - N/A   Clear
12:35 PM 86.0 °F 87.3 °F 64.4 °F 48% 30.03 in 10.0 mi South 12.7 mph 17.3 mph N/A   Clear
12:55 PM 87.8 °F 90.4 °F 66.2 °F 49% 30.03 in 10.0 mi SSE 13.8 mph 19.6 mph N/A   Clear
1:15 PM 87.8 °F 89.4 °F 64.4 °F 46% 30.02 in 10.0 mi South 12.7 mph 18.4 mph N/A   Clear
1:35 PM 89.6 °F 91.1 °F 64.4 °F 43% 30.02 in 10.0 mi South 15.0 mph 21.9 mph N/A   Clear
1:55 PM 89.6 °F 90.1 °F 62.6 °F 40% 30.02 in 10.0 mi South 18.4 mph 24.2 mph N/A   Clear
2:15 PM 91.4 °F 93.2 °F 64.4 °F 41% 30.02 in 10.0 mi SSE 16.1 mph 25.3 mph N/A   Clear
2:35 PM 91.4 °F 92.1 °F 62.6 °F 38% 30.01 in 10.0 mi South 17.3 mph 23.0 mph N/A   Clear
2:55 PM 91.4 °F 92.1 °F 62.6 °F 38% 30.01 in 10.0 mi South 18.4 mph 23.0 mph N/A   Clear
3:15 PM 91.4 °F 92.1 °F 62.6 °F 38% 30.01 in 10.0 mi South 21.9 mph 25.3 mph N/A   Clear
3:35 PM 91.4 °F 92.1 °F 62.6 °F 38% 30.00 in 10.0 mi South 18.4 mph 23.0 mph N/A   Clear
3:55 PM 91.4 °F 92.1 °F 62.6 °F 38% 30.00 in 10.0 mi SSE 20.7 mph 25.3 mph N/A   Clear
4:15 PM 91.4 °F 92.1 °F 62.6 °F 38% 29.99 in 10.0 mi SSE 20.7 mph 27.6 mph N/A   Clear
4:35 PM 93.2 °F 94.9 °F 64.4 °F 38% 29.99 in 10.0 mi South 20.7 mph 26.5 mph N/A   Clear
4:55 PM 93.2 °F 94.1 °F 62.6 °F 36% 29.98 in 10.0 mi SSE 19.6 mph 23.0 mph N/A   Clear
5:15 PM 91.4 °F 92.1 °F 62.6 °F 38% 29.98 in 10.0 mi South 16.1 mph 27.6 mph N/A   Clear
5:35 PM 91.4 °F 92.1 °F 62.6 °F 38% 29.98 in 10.0 mi South 19.6 mph 24.2 mph N/A   Clear
5:55 PM 91.4 °F 92.1 °F 62.6 °F 38% 29.98 in 10.0 mi South 16.1 mph 23.0 mph N/A   Clear
6:15 PM 91.4 °F 92.1 °F 62.6 °F 38% 29.98 in 10.0 mi South 17.3 mph 24.2 mph N/A   Clear
6:35 PM 89.6 °F 90.1 °F 62.6 °F 40% 29.98 in 10.0 mi SSE 20.7 mph 24.2 mph N/A   Clear
6:55 PM 89.6 °F 90.1 °F 62.6 °F 40% 29.98 in 10.0 mi SSE 20.7 mph 27.6 mph N/A   Clear
7:15 PM 89.6 °F 90.1 °F 62.6 °F 40% 29.97 in 10.0 mi South 17.3 mph 24.2 mph N/A   Clear
7:35 PM 87.8 °F 89.4 °F 64.4 °F 46% 29.97 in 10.0 mi SSE 17.3 mph 23.0 mph N/A   Clear
7:55 PM 86.0 °F 87.3 °F 64.4 °F 48% 29.98 in 10.0 mi SSE 12.7 mph 21.9 mph N/A   Clear
8:15 PM 84.2 °F 85.6 °F 64.4 °F 51% 29.98 in 10.0 mi SSE 13.8 mph - N/A   Clear
8:35 PM 82.4 °F 83.9 °F 64.4 °F 54% 29.99 in 10.0 mi SSE 13.8 mph - N/A   Clear
8:55 PM 80.6 °F 82.3 °F 64.4 °F 58% 29.99 in 10.0 mi SSE 10.4 mph - N/A   Clear
9:15 PM 78.8 °F - 64.4 °F 61% 30.01 in 10.0 mi SSE 10.4 mph - N/A   Clear
9:35 PM 78.8 °F - 64.4 °F 61% 30.02 in 10.0 mi SSE 10.4 mph - N/A   Clear
9:55 PM 78.8 °F - 64.4 °F 61% 30.02 in 10.0 mi SSE 12.7 mph - N/A   Clear
10:15 PM 78.8 °F - 64.4 °F 61% 30.03 in 10.0 mi SSE 12.7 mph - N/A   Clear
10:35 PM 77.0 °F - 64.4 °F 65% 30.03 in 10.0 mi SSE 11.5 mph - N/A   Clear
10:55 PM 75.2 °F - 64.4 °F 69% 30.03 in 10.0 mi SE 10.4 mph - N/A   Clear
11:15 PM 73.4 °F - 64.4 °F 73% 30.03 in 10.0 mi SSE 12.7 mph - N/A   Clear
11:35 PM 73.4 °F - 64.4 °F 73% 30.03 in 10.0 mi SSE 15.0 mph - N/A   Clear
11:55 PM 73.4 °F - 64.4 °F 73% 30.03 in 10.0 mi SSE 13.8 mph - N/A   Clear